Weather History for Burlington, IA

Change the Weather History Date:

Saturday, November 17, 2012

  Actual Average Record
Temperature  
Mean Temperature 46 °F 42 °F  
Max Temperature 57 °F 51 °F 86 °F (1899)
Min Temperature 34 °F 33 °F 0 °F (1959)
Degree Days  
Heating Degree Days 19 23  
Month to date heating degree days 358 329  
Since 1 July heating degree days 903 723  
Cooling Degree Days 0 0  
Month to date cooling degree days 0 0  
Year to date cooling degree days 1287 1206  
Moisture  
Dew Point 31 °F    
Average Humidity 61    
Maximum Humidity 82    
Minimum Humidity 39    
Precipitation  
Precipitation 0.00 in 0.08 in 0.80 in (1958)
Month to date precipitation 1.28 1.45  
Year to date precipitation 22.30 35.34  
Sea Level Pressure  
Sea Level Pressure 30.43 in    
Wind  
Wind Speed 7 mph (SSE)    
Max Wind Speed 13 mph    
Max Gust Speed 17 mph    
Visibility 9 miles    
Events      
T = Trace of Precipitation, MM = Missing Value Source: NWS Daily Summary

Daily Weather History Graph

Daily Weather History Graph

Search for Another Location

Airport:

Trip Planner

Search our weather history database for the weather conditions in past years. The results will help you decide how hot, cold, wet, or windy it might be!

Date:

Astronomy

Nov. 17, 2012 Rise Set
Actual Time 6:54 AM CST 4:44 PM CST
Civil Twilight 6:24 AM CST 5:13 PM CST
Nautical Twilight 5:51 AM CST 5:47 PM CST
Astronomical Twilight 5:19 AM CST 6:19 PM CST
Moon 10:39 AM CST (11/17) 8:54 PM CST (11/17)
Length of Visible Light 10h 49m
Length of Day
9h 49m
Waxing Crescent, 20% of the Moon is Illuminated
Nov 17
Waxing Crescent
Nov 20
First Quarter
Nov 28
Full
Dec 6
Last Quarter
Dec 13
New

Hourly Weather History & Observations

Time (CST) Temp. Windchill Dew Point Humidity Pressure Visibility Wind Dir Wind Speed Gust Speed Precip Events Conditions
12:53 AM 39.0 °F 35.7 °F 32.0 °F 76% 30.44 in 9.0 mi South 4.6 mph - N/A   Clear
1:53 AM 37.9 °F 32.7 °F 32.0 °F 79% 30.45 in 10.0 mi South 6.9 mph - N/A   Clear
2:53 AM 39.0 °F 34.8 °F 30.9 °F 73% 30.46 in 10.0 mi South 5.8 mph - N/A   Clear
3:53 AM 37.0 °F 33.3 °F 30.0 °F 76% 30.46 in 9.0 mi South 4.6 mph - N/A   Clear
4:53 AM 35.1 °F 31.0 °F 28.9 °F 78% 30.47 in 9.0 mi South 4.6 mph - N/A   Clear
5:53 AM 36.0 °F 32.1 °F 28.9 °F 76% 30.48 in 9.0 mi SSE 4.6 mph - N/A   Clear
6:53 AM 35.1 °F 29.3 °F 28.9 °F 78% 30.48 in 7.0 mi SSE 6.9 mph - N/A   Clear
7:53 AM 37.9 °F 33.5 °F 30.0 °F 73% 30.49 in 7.0 mi SSE 5.8 mph - N/A   Clear
8:53 AM 43.0 °F 38.8 °F 32.0 °F 65% 30.49 in 7.0 mi South 6.9 mph - N/A   Clear
9:53 AM 46.9 °F - 33.1 °F 59% 30.49 in 8.0 mi South 12.7 mph - N/A   Clear
1:53 PM 57.0 °F - 32.0 °F 39% 30.41 in 10.0 mi South 11.5 mph - N/A   Clear
2:53 PM 55.0 °F - 33.1 °F 43% 30.40 in 10.0 mi South 8.1 mph - N/A   Clear
3:53 PM 53.1 °F - 32.0 °F 45% 30.40 in 10.0 mi SSE 5.8 mph - N/A   Clear
4:53 PM 50.0 °F - 30.9 °F 48% 30.40 in 10.0 mi SE 6.9 mph - N/A   Clear
5:53 PM 46.0 °F 42.5 °F 30.9 °F 56% 30.39 in 10.0 mi ESE 6.9 mph - N/A   Clear
6:53 PM 44.1 °F 40.1 °F 30.0 °F 58% 30.39 in 10.0 mi SE 6.9 mph - N/A   Clear
7:53 PM 42.1 °F 39.2 °F 28.9 °F 60% 30.40 in 10.0 mi SE 4.6 mph - N/A   Clear
8:53 PM 43.0 °F 37.7 °F 30.9 °F 62% 30.40 in 10.0 mi SE 9.2 mph - N/A   Clear
9:53 PM 43.0 °F 38.2 °F 33.1 °F 68% 30.40 in 8.0 mi SSE 8.1 mph - N/A   Clear
10:53 PM 43.0 °F 37.7 °F 34.0 °F 71% 30.39 in 8.0 mi SSE 9.2 mph - N/A   Clear
11:53 PM 42.1 °F 36.6 °F 34.0 °F 73% 30.39 in 7.0 mi SSE 9.2 mph - N/A   Clear